Location: Bauerbach
(50.4985°N, 10.3912°E)
Time: 09:42:11
(UTC+00:00)

BREEZE-M DEB (TANK) - Pass Details

Date: 13 January 2026
Orbit: 313 x 16555 km, 49.5° (Epoch: 16 February)

Event Time Altitude Azimuth Distance (km) Brightness Sun altitude
Exits shadow 05:25:04 25° 251° (WSW) 1,369 4.3 -16.7°
Maximum altitude 05:27:05 39° 198° (SSW) 1,328 4.7 -16.4°
Drops below altitude 10° 05:37:15 10° 135° (SE) 5,377 8.8 -14.8°
Sets 05:45:35 0° 131° (SE) 8,609 10.2 -13.6°
